New Orleans Lakefront, LA

4:38 AM CDT on October 18, 2017 (GMT -0500)
Lakefront

Weather History for KNEW - January, 2014

Change the Weather History Date:

Thursday, January 2, 2014

  Actual Average Record
Temperature  
Mean Temperature 49 °F 54 °F  
Max Temperature 58 °F 62 °F 81 °F (1952)
Min Temperature 40 °F 45 °F 25 °F (1984)
Degree Days  
Heating Degree Days 16 12  
Month to date heating degree days 27 24  
Since 1 July heating degree days 560 505  
Cooling Degree Days 0 1  
Month to date cooling degree days 0 2  
Year to date cooling degree days 0 2  
Moisture  
Dew Point 49 °F    
Average Humidity 76    
Maximum Humidity 100    
Minimum Humidity 52    
Precipitation  
Precipitation 0.32 in 0.16 in 1.27 in (1947)
Month to date precipitation 0.35 0.32  
Year to date precipitation 0.35 0.32  
Snow  
Snow 0.00 in - - ()
Month to date snowfall 0.0  
Since 1 July snowfall 0.0  
Snow Depth 0.00 in    
Sea Level Pressure  
Sea Level Pressure 30.05 in    
Wind  
Wind Speed 13 mph (NNW)    
Max Wind Speed 25 mph    
Max Gust Speed 32 mph    
Visibility 4 miles    
Events Fog , Rain    
T = Trace of Precipitation, MM = Missing Value Source: NWS Daily Summary

Daily Weather History Graph

Daily Weather History Graph

Search for Another Location

Airport or City:

Trip Planner

Search our weather history database for the weather conditions in past years. The results will help you decide how hot, cold, wet, or windy it might be!

Date:

Astronomy

Jan. 02, 2014 Rise Set
Actual Time 6:56 AM CST 5:12 PM CST
Civil Twilight 6:30 AM CST 5:38 PM CST
Nautical Twilight 6:00 AM CST 6:08 PM CST
Astronomical Twilight 5:31 AM CST 6:37 PM CST
Moon 7:45 AM CST (1/2) 6:59 PM CST (1/2)
Length of Visible Light 11h 08m
Length of Day
10h 15m
Waxing Crescent, 3% of the Moon is Illuminated
Jan 2
Waxing Crescent
Jan 7
First Quarter
Jan 15
Full
Jan 23
Last Quarter
Jan 30
New

Hourly Weather History & Observations

Time (CST) Temp. Windchill Dew Point Humidity Pressure Visibility Wind Dir Wind Speed Gust Speed Precip Events Conditions
12:08 AM 55.0 °F - 54.0 °F 96% 30.03 in 1.8 mi ENE 5.8 mph - 0.04 in Rain Heavy Rain
12:16 AM 55.0 °F - 53.1 °F 93% 30.03 in 2.0 mi NNE 6.9 mph - 0.05 in Rain Light Rain
12:23 AM 55.0 °F - 53.1 °F 93% 30.03 in 2.0 mi NNE 6.9 mph - 0.05 in Rain Light Rain
12:36 AM 55.0 °F - 54.0 °F 96% 30.02 in 2.0 mi NNE 8.1 mph - 0.06 in Rain Light Rain
12:46 AM 55.0 °F - 54.0 °F 96% 30.01 in 1.8 mi NE 9.2 mph - 0.07 in Rain Light Rain
12:53 AM 55.0 °F - 54.0 °F 96% 29.99 in 1.5 mi NE 9.2 mph - 0.09 in Rain Rain
1:11 AM 55.0 °F - 54.0 °F 96% 30.01 in 1.5 mi East 8.1 mph - 0.03 in Rain Light Rain
1:32 AM 55.9 °F - 55.0 °F 97% 30.00 in 1.5 mi ESE 3.5 mph - 0.06 in Rain Light Rain
1:53 AM 55.9 °F - 54.0 °F 93% 29.97 in 2.0 mi Calm Calm - 0.07 in Rain Light Rain
2:05 AM 55.0 °F - 54.0 °F 96% 29.99 in 1.0 mi NNW 8.1 mph - 0.04 in Rain Rain
2:12 AM 55.9 °F - 55.0 °F 97% 29.99 in 0.8 mi North 8.1 mph - 0.07 in Rain Rain
2:21 AM 55.9 °F - 55.0 °F 97% 29.98 in 1.5 mi ENE 6.9 mph - 0.08 in Rain Light Rain
2:53 AM 55.9 °F - 55.0 °F 97% 29.96 in 1.8 mi NW 10.4 mph - 0.13 in Rain Heavy Rain
3:06 AM 55.0 °F - 54.0 °F 96% 29.98 in 2.0 mi NNW 6.9 mph - 0.01 in Rain Light Rain
3:15 AM 55.9 °F - 55.0 °F 97% 29.98 in 4.0 mi NW 6.9 mph - 0.01 in Rain Light Rain
3:53 AM 55.9 °F - 55.0 °F 97% 29.96 in 2.0 mi North 6.9 mph - 0.02 in Rain Light Rain
3:58 AM 55.9 °F - 55.0 °F 97% 29.97 in 0.8 mi North 6.9 mph - 0.00 in Rain Light Rain
4:19 AM 55.0 °F - 54.0 °F 96% 29.96 in 0.5 mi North 5.8 mph - 0.00 in Fog Fog
4:53 AM 55.0 °F - 54.0 °F 96% 29.95 in 0.2 mi NW 3.5 mph - 0.00 in Fog Fog
5:32 AM 54.0 °F - 53.1 °F 97% 29.96 in 0.5 mi WNW 3.5 mph - N/A Fog Fog
5:53 AM 54.0 °F - 53.1 °F 97% 29.96 in 0.5 mi WNW 5.8 mph - N/A Fog Fog
6:18 AM 55.0 °F - 54.0 °F 96% 29.99 in 2.0 mi NNW 8.1 mph - 0.01 in Rain Light Rain
6:24 AM 55.0 °F - 54.0 °F 96% 29.99 in 3.0 mi NW 6.9 mph - 0.01 in Rain Light Rain
6:34 AM 55.0 °F - 54.0 °F 96% 29.99 in 4.0 mi NNW 6.9 mph - 0.01 in   Overcast
6:53 AM 55.0 °F - 54.0 °F 96% 29.98 in 3.0 mi NW 6.9 mph - 0.02 in   Overcast
7:13 AM 54.0 °F - 53.1 °F 97% 30.01 in 2.0 mi West 6.9 mph - N/A   Overcast
7:21 AM 54.0 °F - 53.1 °F 97% 30.01 in 2.0 mi West 5.8 mph - N/A   Overcast
7:30 AM 54.0 °F - 53.1 °F 97% 30.01 in 1.8 mi West 6.9 mph - N/A   Overcast
7:53 AM 54.0 °F - 53.1 °F 97% 30.00 in 1.0 mi West 9.2 mph - N/A   Overcast
8:04 AM 54.0 °F - 53.1 °F 97% 30.02 in 0.8 mi WNW 13.8 mph - N/A   Overcast
8:10 AM 55.9 °F - 54.0 °F 93% 30.03 in 3.0 mi WNW 12.7 mph - N/A   Overcast
8:48 AM 55.4 °F - 53.6 °F 94% 30.04 in 3.0 mi WNW 13.8 mph - N/A   Overcast
8:53 AM 55.0 °F - 54.0 °F 96% 30.03 in 3.0 mi WNW 12.7 mph - N/A   Overcast
9:32 AM 55.0 °F - 53.1 °F 93% 30.06 in 7.0 mi WNW 12.7 mph - N/A   Mostly Cloudy
9:53 AM 55.0 °F - 53.1 °F 93% 30.05 in 8.0 mi WNW 13.8 mph - N/A   Partly Cloudy
10:53 AM 55.9 °F - 51.1 °F 84% 30.06 in 10.0 mi NW 17.3 mph - N/A   Clear
11:53 AM 55.9 °F - 51.1 °F 84% 30.05 in 10.0 mi NW 15.0 mph - N/A   Partly Cloudy
12:53 PM 55.0 °F - 48.0 °F 77% 30.05 in 10.0 mi NNW 16.1 mph - N/A   Partly Cloudy
1:53 PM 55.0 °F - 45.0 °F 69% 30.06 in 10.0 mi NNW 25.3 mph - N/A   Scattered Clouds
2:53 PM 55.9 °F - 43.0 °F 62% 30.08 in 10.0 mi NNW 24.2 mph 32.2 mph N/A   Clear
3:53 PM 54.0 °F - 42.1 °F 64% 30.14 in 10.0 mi NNW 24.2 mph - N/A   Partly Cloudy
4:53 PM 52.0 °F - 37.9 °F 59% 30.18 in 10.0 mi North 27.6 mph 39.1 mph N/A   Clear
5:53 PM 50.0 °F - 32.0 °F 50% 30.21 in 10.0 mi North 32.2 mph 42.6 mph N/A   Clear
6:53 PM 48.0 °F - 32.0 °F 54% 30.24 in 10.0 mi North 25.3 mph - N/A   Clear
7:53 PM 46.9 °F - 28.9 °F 50% 30.29 in 10.0 mi North 27.6 mph 34.5 mph N/A   Clear
8:53 PM 45.0 °F 35.8 °F 30.9 °F 58% 30.31 in 10.0 mi North 26.5 mph 32.2 mph N/A   Clear
9:53 PM 44.1 °F 34.6 °F 32.0 °F 63% 30.33 in 10.0 mi North 26.5 mph 32.2 mph N/A   Clear
10:53 PM 43.0 °F 32.5 °F 30.0 °F 60% 30.34 in 10.0 mi North 29.9 mph 35.7 mph N/A   Clear
11:53 PM 41.0 °F 30.5 °F 28.9 °F 62% 30.35 in 10.0 mi North 26.5 mph 34.5 mph N/A   Clear